CZ-4B R/B

Last updated on Sat Sep 12 2026 00:02:09 GMT+0000 (Coordinated Universal Time)

1 29507U 06046C 26254.53462359 .00003086 00000+0 15170-3 0 9998 2 29507 97.5377 298.8716 0031633 345.2818 14.7492 15.18377954 88239
UTC large
Height (km)
Speed (km/s)
/
Latitude / Longitude
Inclination (degrees)
Orbital Period (minutes)
Azimuth
Elevation
Range (km)
Doppler Factor

Next 0 passes for location: London (51.5072 / 0.1276)

No passes found over London.
CZ-4B R/B